Find Starlink 5917

NORAD ID: 55942 Int'l Des: 2023-037 Owner: SPXS Country: US Constellation: starlink operational
LEOCIRCULAR

Current View

Loading 3D Globe...

About Starlink 5917

Description loading...

Upcoming Passes

Passes for default location (London). Set your location on the main map for personalized predictions.

Altitude History

Loading altitude history...

Two-Line Element Set

1 55942U 23037AE 26150.20063480 .00000287 00000-0 31886-4 0 9994
2 55942 70.0003 78.7841 0003059 263.6533 96.4277 14.98330480176196
Epoch: May 30, 2026 • Age: 18 hours

Current Status

Altitude 581.3 km
Velocity 7.57 km/s
Sub-Earth Point 49.86°N, 126.34°W
Launch Date Mar 17, 2023
Age 3.2 years
Type internet

Technical Details

Classification Payload
Mass 305.00 kg
Dry Mass 290.00 kg
Total Mass 305.00 kg
Length 0.20 m
Diameter 2.80 m
Span 9.00 m
Shape Box + pan
Manufacturer SPXS
Bus Type Starlink
Phase Status In Orbit
Owner/State SPXS/US

Most Searched